Volver al catálogo

BRO-22

ActivoCienciaSSO
NORAD 69504·PAYLOAD·🇫🇷 France

Lanzado Jun 12, 2026 desde Tanegashima Space Center

Loading…

Próximos Pases (próximas 24 horas)

TLE

ActualizadoSource: Space-Track

Época: Sep 14, 2026, 14:48 UTC

1 69504U 26132C   26257.61706200 -.00000189  00000-0 -10360-4 0  9996
2 69504  97.6801 320.1511 0017408 331.7807  28.2471 14.99942413 14183

Sigue BRO-22 en tiempo real con AllMySat

Download on the App Store